Location: Chippewa Lake
(41.0698°N, 81.9010°W)
Time: 19:56:49
(UTC+00:00)

Timation 2 Rocket - Pass Details

Date: 09 May 2021
Orbit: 907 x 1074 km, 70.0° (Epoch: 16 June)

Event Time Altitude Azimuth Distance (km) Brightness Sun altitude
Rises 08:00:51 0° 335° (NNW) 3,548 7.3 -21.1°
Reaches altitude 10° 08:03:21 10° 337° (NNW) 2,598 6.6 -20.8°
Maximum altitude 08:09:21 78° 64° (ENE) 934 4.0 -20.1°
Drops below altitude 10° 08:15:22 10° 151° (SSE) 2,612 6.1 -19.3°
Sets 08:17:53 0° 153° (SSE) 3,568 6.8 -19.0°
